Tracking 19170 objects as of 23-May-2018
HD Live streaming from Space Station
objects crossing your sky now

IRIDIUM 76

Track IRIDIUM 76 now!
10-day predictions
IRIDIUM 76 is classified as:


NORAD ID: 25432
Int'l Code: 1998-048B
Perigee: 768.6 km
Apogee: 772.0 km
Inclination: 86.4 °
Period: 100.1 minutes
Semi major axis: 7141 km
RCS: 4.1166 m2 (large)
Launch date: August 19, 1998
Source: United States (US)
Launch site: Taiyaun Space Center, China (TSC)

Spare; stored in 667 km storage orbit, not raised to 780 km operational orbit until needed
aabbcc
Your satellite tracking list
Your tracking list is empty




NASA's NSSDC Master Catalog

Two Line Element Set (TLE):
1 25432U 98048B   18143.44155746  .00000010  00000-0 -31295-5 0  9995
2 25432  86.4239 113.3167 0002383  72.1363 288.0095 14.38598632 34390
Source of the keplerian elements: AFSPC